[[{"header":{"parameterUnit":"m.s-1","parameterCategory":1,"la1":30.2991,"la2":30.254,"lo1":-89.0895,"lo2":-89.0444,"dy":0.0017,"dx":0.0017,"nx":28,"ny":28,"refTime":"2025-04-30T21:00:00:Z","depth":0,"parameterNumber":2,"parameterNumberName":"U-component_of_WINDS"},"data":[0,0,0,0,0,0,0,0,0,0,0,0,0,0,0,0,0,0,0,0,0,0,0,0,0,0,0,0,0,0,0,0,0,0,0,0,0,0,0,0,0,0,0,0,0,0,0,0,0,0,0,0,0,0,0,0,0,0,-1.8431,-1.8433,0,-1.8573,-1.8574,-1.8576,-1.8593,-1.8592,-1.8591,-1.8589,-1.8732,-1.8737,-1.8742,0,0,0,0,0,0,0,0,0,0,0,0,0,-1.8174,-1.8179,-1.8431,-1.8433,-1.8435,-1.8572,-1.8574,-1.8576,-1.8594,-1.8592,-1.859,-1.8589,-1.8731,-1.8737,-1.8743,0,0,0,0,0,0,0,0,0,0,0,0,0,-1.8298,-1.818,-1.8431,-1.846,-1.8464,-1.8572,-1.8574,-1.8577,-1.8594,-1.8592,-1.859,-1.8588,-1.8729,-1.8736,-1.8744,-1.8832,0,0,-1.8767,-1.877,0,0,0,0,0,0,0,0,-1.8291,-1.8307,-1.8454,-1.8458,-1.8463,-1.8563,-1.8536,-1.8662,-1.8594,-1.8544,-1.8589,-1.8587,-1.8678,-1.8689,-1.872,-1.8839,-1.8845,-1.8768,-1.8772,-1.8775,-1.8778,0,0,0,0,0,0,0,-1.8282,-1.8301,-1.8487,-1.8456,-1.8461,-1.8465,-1.8481,-1.856,-1.8621,-1.8549,-1.855,-1.8567,-1.868,-1.8713,-1.8724,-1.8847,-1.8767,-1.8774,-1.8779,-1.8782,-1.9045,-1.9047,0,0,0,0,0,0,-1.8268,-1.8294,-1.8482,-1.8491,-1.837,-1.8472,-1.8489,-1.8533,-1.862,-1.8631,-1.8568,-1.8567,-1.8701,-1.8715,-1.8729,-1.8838,-1.8775,-1.8783,-1.8787,-1.9043,-1.9046,-1.9048,0,0,0,0,0,0,-1.8263,-1.8285,-1.8477,-1.8393,-1.8418,-1.8478,-1.8528,-1.8537,-1.857,-1.8635,-1.8646,-1.8591,-1.87,-1.8718,-1.8806,-1.8844,-1.8786,-1.8793,-1.904,-1.9044,-1.9047,-1.9058,0,0,0,0,0,0,-1.8255,-1.8283,-1.8317,-1.8394,-1.8422,-1.8552,-1.853,-1.8541,-1.8584,-1.8583,-1.8659,-1.867,-1.87,-1.8795,-1.8814,-1.8853,-1.8799,-1.9037,-1.9042,-1.9046,-1.9054,-1.9061,-1.9067,0,0,0,0,0,-1.8246,-1.8314,-1.8319,-1.8342,-1.8467,-1.8555,-1.8571,-1.8604,-1.8586,-1.8622,-1.8663,-1.8668,-1.8836,-1.8804,-1.8825,-1.8867,-1.9035,-1.904,-1.9045,-1.9052,-1.906,-1.9067,0,0,0,0,0,0,-1.824,-1.8325,-1.8331,-1.8426,-1.8483,-1.8557,-1.8602,-1.8612,-1.8674,-1.8671,-1.8709,-1.8726,-1.8813,-1.8849,-1.8811,-1.8958,-1.8934,-1.8944,-1.8931,-1.894,-1.8946,-1.8935,-1.8805,0,0,0,0,0,-1.825,-1.8315,-1.8385,-1.8462,-1.849,-1.8541,-1.8581,-1.8602,-1.8662,-1.8686,-1.8734,-1.8792,-1.8858,-1.8901,-1.8965,-1.906,-1.9077,-1.9099,-1.9106,-1.9111,-1.9119,-1.9172,-1.9183,-1.9066,-1.9066,-1.9066,0,0,-1.827,-1.8325,-1.8363,-1.8462,-1.8509,-1.8575,-1.8562,-1.8632,-1.8681,-1.8696,-1.8783,-1.882,-1.8887,-1.8979,-1.9022,-1.9012,-1.9155,-1.9118,-1.9121,-1.9127,-1.9178,-1.9189,-1.9199,-1.907,-1.9069,-1.9069,0,0,-1.8342,-1.8389,-1.8459,-1.8506,-1.8578,-1.8611,-1.8628,-1.8701,-1.8727,-1.8815,-1.8828,-1.8886,-1.8999,-1.9047,-1.9086,-1.9176,-1.9182,-1.9196,-1.9229,-1.9281,-1.929,-1.9298,-1.933,-1.9342,-1.9204,-1.9204,-1.9204,0,-1.8358,-1.8459,-1.8494,-1.8564,-1.8607,-1.8625,-1.8696,-1.874,-1.8828,-1.8857,-1.8844,-1.8987,-1.9033,-1.9137,-1.9159,-1.919,-1.921,-1.9187,-1.9286,-1.9294,-1.9303,-1.9334,-1.9346,-1.9205,-1.9205,-1.9205,-1.9204,0,-1.8476,-1.8545,-1.8593,-1.8679,-1.8727,-1.8797,-1.8842,-1.8887,-1.8904,-1.8938,-1.9028,-1.9084,-1.916,-1.9186,-1.9203,-1.9292,-1.9284,-1.9278,-1.9255,-1.9314,-1.9344,-1.9357,-1.9207,-1.9206,-1.9206,-1.9205,0,0,-1.8547,-1.8652,-1.8669,-1.8708,-1.8788,-1.8842,-1.8913,-1.8989,-1.9026,-1.9086,-1.9147,-1.9242,-1.9238,-1.9282,-1.9304,-1.9349,-1.9417,-1.9338,-1.934,-1.935,-1.9519,-1.9523,-1.9536,-1.9421,-1.9424,-1.9426,-1.9513,0,-1.8628,-1.8756,-1.8789,-1.8897,-1.8962,-1.898,-1.9042,-1.9097,-1.9132,-1.9191,-1.9229,-1.9296,-1.9285,-1.9312,-1.9357,-1.9399,-1.9451,-1.9393,-1.9477,-1.948,-1.946,-1.9552,-1.9556,-1.9636,-1.9525,-1.9527,-1.9529,0,-1.874,-1.8803,-1.8918,-1.899,-1.9019,-1.9074,-1.9146,-1.9203,-1.9266,-1.9288,-1.9337,-1.9355,-1.9429,-1.9402,-1.9504,-1.9464,-1.9501,-1.9526,-1.953,-1.9539,-1.9508,-1.9564,-1.9663,-1.9675,-1.9548,-1.9546,-1.9545,0,-1.8781,-1.8895,-1.8979,-1.9012,-1.9098,-1.9136,-1.9173,-1.9235,-1.9278,-1.9341,-1.9369,-1.9439,-1.9478,-1.9532,-1.9568,-1.9545,-1.9667,-1.9643,-1.9687,-1.9686,-1.9712,-1.971,-1.9819,-1.9735,-1.9735,-1.9735,-1.9735,0,-1.8868,-1.8937,-1.8998,-1.905,-1.9128,-1.9166,-1.9242,-1.928,-1.9335,-1.9394,-1.9413,-1.9468,-1.9512,-1.9573,-1.9601,-1.9682,-1.9699,-1.9718,-1.9725,-1.9717,-1.9714,-1.9741,-1.9737,-1.9738,-1.9738,-1.9737,-1.9736,0,-1.8927,-1.897,-1.9063,-1.9137,-1.9158,-1.9212,-1.9275,-1.9326,-1.9361,-1.9435,-1.9455,-1.951,-1.9582,-1.9624,-1.9714,-1.9734,-1.9823,-1.9827,-1.9802,-1.9805,-1.9847,-1.9843,-1.9977,-1.9996,-1.99,-1.9901,-1.9901,0,-1.898,-1.9034,-1.9114,-1.9156,-1.9194,-1.926,-1.9305,-1.9344,-1.9389,-1.9466,-1.9507,-1.9581,-1.9642,-1.9756,-1.9804,-1.9873,-1.9879,-1.9921,-1.989,-1.988,-1.988,-1.9877,-1.9882,-1.9927,-1.9928,-1.9928,-1.9929,0,-1.9069,-1.9088,-1.9152,-1.9224,-1.9277,-1.9335,-1.9393,-1.9426,-1.9474,-1.9524,-1.9599,-1.9646,-1.974,-1.9812,-1.9886,-1.9924,-1.9935,-1.9939,-1.9953,-1.9945,-1.9928,-1.9938,-1.9817,-1.9935,-1.9935,-1.9934,-1.9934,-1.9934,-1.9127,-1.9176,-1.9241,-1.9312,-1.9359,-1.9413,-1.9464,-1.9506,-1.957,-1.9649,-1.9668,-1.9747,-1.9808,-1.9908,-1.9948,-2.001,-2.0002,-2.0022,-2.0028,-2.0032,-2.0034,-1.9918,-2.0023,-2.0023,-2.0023,-2.0023,-2.0023,0,-1.9218,-1.9261,-1.9325,-1.9406,-1.9462,-1.9468,-1.9532,-1.9578,-1.9647,-1.9704,-1.9764,-1.985,-1.9921,-1.9974,-2.0046,-2.0085,-2.0092,-2.0103,-2.0101,-2.0109,-2.0036,-2.0017,-2.0096,-2.0096,-2.0096,-2.0096,-2.0096,-2.0096,-1.9272,-1.9356,-1.9382,-1.949,-1.9532,-1.961,-1.9646,-1.9695,-1.9741,-1.9836,-1.9896,-1.993,-1.9986,-2.0062,-2.0127,-2.0141,-2.0167,-2.0177,-2.0192,-2.0122,-2.0114,-2.0107,-2.0089,-2.0182,-2.0183,-2.026,-2.0261,-2.0261]},{"header":{"parameterUnit":"m.s-1","parameterCategory":1,"la1":30.2991,"la2":30.254,"lo1":-89.0895,"lo2":-89.0444,"dy":0.0017,"dx":0.0017,"nx":28,"ny":28,"refTime":"2025-04-30T21:00:00:Z","depth":0,"parameterNumber":3,"parameterNumberName":"V-component_of_WINDS"},"data":[0,0,0,0,0,0,0,0,0,0,0,0,0,0,0,0,0,0,0,0,0,0,0,0,0,0,0,0,0,0,0,0,0,0,0,0,0,0,0,0,0,0,0,0,0,0,0,0,0,0,0,0,0,0,0,0,0,0,5.2364,5.2365,0,5.2408,5.2408,5.2409,5.2382,5.238,5.2379,5.2378,5.2417,5.2419,5.2421,0,0,0,0,0,0,0,0,0,0,0,0,0,5.2252,5.2254,5.2364,5.2365,5.2365,5.2407,5.2408,5.2409,5.2382,5.238,5.2379,5.2377,5.2416,5.2419,5.2421,0,0,0,0,0,0,0,0,0,0,0,0,0,5.2299,5.2255,5.2364,5.2357,5.2357,5.2407,5.2408,5.2409,5.2382,5.238,5.2378,5.2377,5.2415,5.2418,5.2422,5.248,0,0,5.2432,5.2433,0,0,0,0,0,0,0,0,5.2296,5.2303,5.2357,5.2358,5.2357,5.2387,5.2383,5.2432,5.2383,5.2372,5.2378,5.2376,5.2408,5.2412,5.2424,5.2481,5.2483,5.2432,5.2434,5.2436,5.2436,0,0,0,0,0,0,0,5.2293,5.2301,5.2381,5.2358,5.2358,5.235,5.2354,5.2392,5.24,5.2373,5.2371,5.2377,5.2408,5.2421,5.2425,5.2484,5.2432,5.2435,5.2437,5.2438,5.2591,5.2593,0,0,0,0,0,0,5.2291,5.2298,5.238,5.2382,5.2322,5.2354,5.2359,5.238,5.24,5.2401,5.2379,5.2376,5.2416,5.2421,5.2426,5.2495,5.2435,5.2439,5.244,5.2589,5.2591,5.2594,0,0,0,0,0,0,5.2289,5.2299,5.2378,5.234,5.2349,5.2357,5.2381,5.2381,5.2395,5.2404,5.2405,5.2391,5.2415,5.2421,5.2467,5.2496,5.244,5.2443,5.2586,5.259,5.2592,5.2634,0,0,0,0,0,0,5.2286,5.2298,5.2321,5.2341,5.2352,5.242,5.2383,5.2384,5.2401,5.2398,5.2416,5.2417,5.2414,5.2462,5.247,5.25,5.2446,5.2584,5.2588,5.2591,5.263,5.2638,5.2645,0,0,0,0,0,5.2282,5.233,5.2322,5.2332,5.2381,5.2422,5.2428,5.2425,5.2404,5.2426,5.2432,5.2416,5.2492,5.2467,5.2476,5.2507,5.2582,5.2587,5.2591,5.2627,5.2637,5.2645,0,0,0,0,0,0,5.2311,5.2332,5.2324,5.2381,5.24,5.2417,5.2445,5.2435,5.2459,5.2455,5.2449,5.2453,5.2501,5.2508,5.248,5.2564,5.2533,5.254,5.2557,5.2567,5.2574,5.2571,5.2448,0,0,0,0,0,5.2325,5.2358,5.2373,5.2421,5.2432,5.2437,5.2455,5.2451,5.247,5.2477,5.2486,5.2504,5.2531,5.255,5.2575,5.2631,5.2635,5.2657,5.2665,5.2671,5.2676,5.2706,5.2716,5.2609,5.2609,5.2609,0,0,5.2352,5.2367,5.2388,5.2428,5.2442,5.2475,5.2444,5.248,5.2503,5.2482,5.2526,5.2534,5.2552,5.2604,5.2627,5.2611,5.2707,5.2677,5.2682,5.2684,5.2712,5.2722,5.2731,5.2612,5.2611,5.2611,0,0,5.2418,5.2434,5.2476,5.2492,5.2515,5.2518,5.2528,5.2548,5.2552,5.2597,5.2582,5.2609,5.2657,5.2671,5.2685,5.2758,5.2744,5.2766,5.2805,5.2835,5.2843,5.2851,5.2876,5.2886,5.2772,5.2772,5.2772,0,5.2448,5.2499,5.2498,5.2536,5.2553,5.2538,5.2579,5.2594,5.2623,5.2635,5.2618,5.2679,5.269,5.2744,5.2762,5.2774,5.2784,5.2764,5.2842,5.285,5.2857,5.2881,5.2891,5.2775,5.2774,5.2774,5.2774,0,5.2535,5.257,5.2601,5.2633,5.2654,5.2693,5.2696,5.2717,5.2712,5.2717,5.2763,5.2776,5.2805,5.2817,5.2812,5.2871,5.2861,5.2844,5.2812,5.287,5.2893,5.2902,5.2778,5.2777,5.2777,5.2776,0,0,5.262,5.2652,5.2663,5.2678,5.2703,5.2729,5.2767,5.2797,5.2815,5.2836,5.2867,5.2909,5.2893,5.2909,5.2904,5.293,5.2987,5.2909,5.291,5.2923,5.3053,5.3066,5.3077,5.2979,5.298,5.2982,5.3051,0,5.2688,5.2757,5.2758,5.2821,5.2853,5.2839,5.2872,5.289,5.2896,5.2923,5.2928,5.2958,5.2935,5.2944,5.2969,5.2975,5.3013,5.297,5.3006,5.3007,5.3002,5.3089,5.3102,5.3167,5.306,5.3062,5.3063,0,5.2776,5.2803,5.287,5.2891,5.2904,5.2934,5.2962,5.2989,5.3008,5.3011,5.3029,5.3021,5.3058,5.3027,5.3078,5.3049,5.3063,5.3068,5.3071,5.3073,5.3038,5.3093,5.3188,5.3198,5.3077,5.3076,5.3075,0,5.2831,5.2883,5.2931,5.2943,5.2969,5.2991,5.3002,5.302,5.3039,5.3062,5.3074,5.3101,5.3115,5.3136,5.3135,5.3112,5.3186,5.3155,5.3188,5.3188,5.3204,5.3203,5.3302,5.3214,5.3214,5.3214,5.3214,0,5.2907,5.2948,5.2956,5.2985,5.303,5.303,5.3075,5.3084,5.31,5.3129,5.3118,5.3145,5.3143,5.317,5.3169,5.3212,5.3218,5.322,5.3219,5.3221,5.3221,5.323,5.3225,5.3216,5.3216,5.3215,5.3215,0,5.2975,5.2983,5.3033,5.3054,5.3061,5.3093,5.311,5.3137,5.3142,5.3179,5.3188,5.3196,5.3227,5.3229,5.3264,5.3263,5.3315,5.3309,5.3309,5.3308,5.3341,5.3338,5.3449,5.3463,5.3366,5.3367,5.3368,0,5.3023,5.3055,5.3081,5.3101,5.3114,5.3146,5.3165,5.3166,5.3186,5.3212,5.3235,5.3266,5.3291,5.3341,5.3348,5.3375,5.337,5.3407,5.3374,5.3375,5.337,5.3368,5.3371,5.3413,5.3414,5.3415,5.3416,0,5.3107,5.3109,5.3139,5.317,5.3194,5.3218,5.324,5.3256,5.3259,5.3282,5.3316,5.3335,5.3372,5.3403,5.3429,5.3439,5.3428,5.3427,5.3436,5.3438,5.3436,5.3437,5.3326,5.3424,5.3423,5.3423,5.3422,5.3422,5.3166,5.3194,5.3217,5.325,5.3268,5.3289,5.3316,5.3325,5.3354,5.3386,5.3384,5.342,5.3439,5.3474,5.3486,5.3514,5.3501,5.3514,5.3517,5.352,5.3524,5.3433,5.3518,5.3518,5.3518,5.3518,5.3517,0,5.3249,5.3264,5.3294,5.3327,5.3353,5.3343,5.3367,5.3389,5.3422,5.3442,5.3467,5.3505,5.3535,5.3545,5.3574,5.3594,5.3589,5.3601,5.3599,5.3602,5.3534,5.3523,5.3604,5.3604,5.3604,5.3604,5.3604,5.3604,5.3295,5.3342,5.3348,5.3403,5.3416,5.3454,5.3469,5.3488,5.3504,5.3548,5.3573,5.3581,5.3596,5.3626,5.3652,5.3655,5.3665,5.3679,5.3679,5.3615,5.3607,5.3598,5.3588,5.3682,5.3682,5.3745,5.3746,5.3746]}]]